METOP-B

导读

METOP-B是欧洲气象卫星开发组织(EUMETSAT)运营的第二代极轨气象卫星,于2012年9月17日发射升空,属于第一代MetOp系列卫星的第二颗。它运行在近极地太阳同步轨道,搭载了先进的大气探测、微波遥感等多类气象观测仪器,可持续获取全球温湿度、大气成分、海面温度等关键气象数据,为数值天气预报、气候监测和灾害预警提供高精度观测支撑,至今仍是全球气象观测网络的重要组成部分。

基本信息
目录编号:
38771
目录名称:
METOP-B
国际标识:
2012-049A
轨道中心:
EARTH
卫星名称:
METOP-B
卫星全名:
--
卫星状态:
在轨 (已飞行5107 天)
发射日期:
2012-09-17 UTC
国别 :
(EUME)
星等 :
--
轨道信息
数据来源 国际轨道数据 AOE轨道数据
星历时间 2026-09-10T23:26:58+0800
11小时前
查看轨道信息
2026-09-06T00:00:00+0800
5天前
查看轨道信息
半长轴 7198.563km 7198.569km
偏心率 0.0003465 0.0003335
轨道倾角 98.642° 98.643°
近地点辐角 98.465° 107.116°
升交点赤经 303.405° 298.532°
平近点角 261.692° 358.580°
近地点 817.931km 818.031km
远地点 822.921km 822.833km
周期 101.304分钟 101.305分钟
每日圈数 14.214582 14.214564
详细信息
使用方式:
暂无
2D轨道图
3D轨道图
轨道高度分析图
轨道倾角分析图
轨道综合分析图
查看轨道综合分析图
交会数据列表
事件ID 空间交会对象 最接近时刻(TCA) 交会距离 交会风险概率(CRP) 交会风险指数(CRI) 操作
CDM_260911-102003-877106-025229
METOP-B (38771)
2026-09-11T
10:20:55+0000
2.143 km
极远距离
2.314729E-6 低风险 0.42
CDM_260911-130900-491103-877128
METOP-B (38771)
2026-09-11T
13:09:53+0000
2.274 km
极远距离
2.073678E-6 低风险 0.41
CDM_260911-211303-877108-230327
METOP-B (38771)
2026-09-11T
21:13:29+0000
2.511 km
极远距离
1.749467E-6 低风险 0.4
与全量物体交会距离演化趋势
与全量物体交会风险概率演化趋势